STARLINK-30383, 57773

Orbit data source: Space-Track

STARLINK-30383, 57773 is a payload satellite owned by SpaceX/Seattle (US) in LEO that was launched on Mon, 04 Sep 2023 UTC via an FALCON 9 launch vehicle from the Air Force Eastern Test Range (AFETR). Payload-class satellites include a variety of spacecraft equipped with specific instruments for various scientific and technological missions. These include communications satellites like Starlink; space stations such as the ISS; scientific satellites like the Hubble; Earth observation satellites from companies like Planet Labs, Umbra, and HawkEye 360; GPS; miniature CubeSats for education and research; and military/defense satellites.

Loading next visibility...
Identifier
57773, 2023-134C
Orbit
LEO
Country
Flag of USUS
Related business
Manufacturer
SpaceX/Seattle
Mission
Operational Commercial Communications
Bus & Motor
STARLINK V2M, Unknown motor
Mass
730 kg wet, ~700 kg dry
Launch date (UTC)
2023-09-04 (2 years ago)
Launch vehicle
FALCON 9
Launch site
Air Force Eastern Test Range (AFETR)
Object type
Payload
Rocket body
Debris
Shape & HBR
Box + 2 Pan, 17.7 m
Radar Cross Section
33.884 m², Large (>1 m²)

Expand to show TLE details & history
Last TLE update: 1 day ago

TLE from 1 day ago
0 STARLINK-30383
1 57773U 23134C   25346.24662065  .00003491  00000-0  27348-3 0  9997
2 57773  43.0071 312.9821 0001449 257.6686 102.3994 15.02516998126317
Epoch: 2025-12-12T05:55Z
TLE epoch observation values (Epoch: 2025-12-12T05:55:08.024Z)
Latitude
-0.00002°
Longitude
143.00765°
Altitude
559.133 km
Speed
7.584 km/s
True Right ascension
20h 51m 55s
True Declination
0° 00' 00"
Sunlit
Object was in daylight at epoch
Visualization orbit readout
Latitude
Unknown
Longitude
Unknown
Altitude
Unknown
Speed
Unknown
Apparent Right ascension
Unknown
Apparent Declination
Unknown
Sunlit
N/A
Visualization observer readout
Local Sidereal Time
09:18:48
Azimuth
Unknown
Elevation
Unknown
Doppler factor
Unknown
Orbital elements
Apogee altitude
562.066 km
Perigee altitude
560.055 km
Semi-major axis
6,939.198 km
Eccentricity
0.00014
Inclination
43.0071°
RAAN
312.9821°
Arg. of periapsis
257.6686°
True anomaly
102.41562°
Mean anomaly
102.3994°
Eccentric anomaly
102.40751°
Mean motion
3.75473 °/min
Orbital period
95.88 mins
BSTAR
0.00027348
Loading maneuver chart data...
Computing Atmospheric mass density...
Loading historical data...
Loading historical data...
Loading historical data...
Loading historical data...
Loading historical data...
Loading historical data...
Loading historical data...

Documentation

Showing up to 5 results
|